This is the latest recevied weather packets stored in our database for station/object KG5WBN. If no packets are shown the sender has not sent any weather packets the latest 10 day(s).
| Time | Temp. | Humidity | Pressure | Rain* | Wind** | Luminosity | Snow |
|---|---|---|---|---|---|---|---|
| 1777914539 | 26.11° C | 23% | 1016.6 hPa | 0 mm | - | 351 W/m² | - |
| 1777914236 | 25.56° C | 24% | 1016.6 hPa | 0 mm | - | 349 W/m² | - |
| 1777913933 | 25.56° C | 23% | 1016.6 hPa | 0 mm | - | 346 W/m² | - |
| 1777913629 | 25.56° C | 24% | 1016.6 hPa | 0 mm | - | 343 W/m² | - |
| 1777913326 | 26.11° C | 23% | 1016.9 hPa | 0 mm | - | 344 W/m² | - |
| 1777913022 | 25.56° C | 24% | 1017.3 hPa | 0 mm | - | 340 W/m² | - |
| 1777912718 | 25.56° C | 24% | 1017.3 hPa | 0 mm | - | 338 W/m² | - |
| 1777912415 | 25.56° C | 23% | 1017.3 hPa | 0 mm | - | 336 W/m² | - |
| 1777912111 | 25.56° C | 23% | 1017.3 hPa | 0 mm | - | 330 W/m² | - |
| 1777911807 | 25.56° C | 23% | 1016.9 hPa | 0 mm | - | 328 W/m² | - |
| 1777911504 | 25.56° C | 24% | 1017.3 hPa | 0 mm | - | 326 W/m² | - |
| 1777911201 | 25.56° C | 25% | 1017.3 hPa | 0 mm | - | 323 W/m² | - |
| 1777910898 | 25.56° C | 24% | 1017.3 hPa | 0 mm | - | 266 W/m² | - |
| 1777910595 | 25.56° C | 22% | 1017.3 hPa | 0 mm | - | 318 W/m² | - |
| 1777910292 | 25.56° C | 24% | 1017.3 hPa | 0 mm | - | 313 W/m² | - |
| 1777909988 | 25.56° C | 24% | 1017.3 hPa | 0 mm | - | 310 W/m² | - |
| 1777909686 | 25.56° C | 24% | 1017.6 hPa | 0 mm | - | 306 W/m² | - |
| 1777909383 | 26.11° C | 23% | 1017.6 hPa | 0 mm | - | 256 W/m² | - |
| 1777909081 | 25° C | 24% | 1017.3 hPa | 0 mm | - | 296 W/m² | - |
| 1777908778 | 24.44° C | 25% | 1017.3 hPa | 0 mm | - | 294 W/m² | - |
| 1777908475 | 25.56° C | 24% | 1017.3 hPa | 0 mm | - | 292 W/m² | - |
| 1777908172 | 25.56° C | 23% | 1017.3 hPa | 0 mm | - | 288 W/m² | - |
| 1777907868 | 24.44° C | 24% | 1017.3 hPa | 0 mm | - | 281 W/m² | - |
| 1777907564 | 25° C | 24% | 1017.3 hPa | 0 mm | - | 280 W/m² | - |
| 1777907260 | 25.56° C | 25% | 1017.3 hPa | 0 mm | - | 272 W/m² | - |
* Rain latest hour (hover to see other rain measurements)
** Current wind speed in m/s (hover to see current wind gust speed)